Rochester, MN
on Thursday, November 8, 2012

Thursday
Previous Day Next Day
Daily Summary
 ActualAverageRecord
Temperature
Mean Temperature °F 38°F  
Max Temperature 55°F 46°F 75°F (1999)
Min Temperature 34°F 30°F 1°F (1991)
Degree Days
Heating Degree Days 20 27  
Month to date heating degree days 192 200  
Since 1 July heating degree days 857 936  
Cooling Degree Days 0 0  
Month to date cooling degree days 0 0  
Year to date cooling degree days 888 585  
Moisture
Dew Point 34°F   
Average Humidity 70    
Maximum Humidity 85    
Minimum Humidity 54    
Precipitation
Precipitation 0.00 in 0.07 in 1.85 in (1916)
Month to date precipitation 0.22 0.53  
Year to date precipitation 22.77 30.41  
Snow
Snow 0.00 in 0.20 in 6.20 in (1943)
Month to date snowfall 0.0 0.9  
Since 1 July snowfall 0.0 1.7  
Snow Depth 0.00 in   
Wind
Wind Speed 12 mph   
Max Wind Speed 28 mph   
Max Gust Speed 32 mph   
Visibility 10 miles   
Events     

Key: T is trace of precipitation, MM is missing value
Source: NWS Daily Summary
Time(CST)TemperatureDew PointHumidity Pressure Visibility Wind DirectionWind SpeedGust SpeedPrecipitationEvents Conditions
1:54 AM 36.0°F 28.9°F 76% 30.12 in 10.0 miles South 8.1 mph - N/A   Clear
2:54 AM 35.1°F 28.0°F 76% 30.10 in 10.0 miles South 9.2 mph - N/A   Clear
3:54 AM 35.1°F 28.0°F 76% 30.09 in 10.0 miles SSE 9.2 mph - N/A   Clear
4:54 AM 36.0°F 28.9°F 76% 30.07 in 10.0 miles SSE 12.7 mph - N/A   Clear
5:54 AM 36.0°F 28.9°F 76% 30.06 in 10.0 miles SSE 12.7 mph - N/A   Clear
6:54 AM 35.1°F 28.9°F 78% 30.05 in 10.0 miles SSE 10.4 mph - N/A   Clear
7:54 AM 37.0°F 30.9°F 79% 30.06 in 10.0 miles South 12.7 mph - N/A   Scattered Clouds
8:54 AM 39.9°F 33.1°F 77% 30.06 in 10.0 miles South 17.3 mph - N/A   Clear
9:54 AM 45.0°F 35.1°F 68% 30.05 in 10.0 miles South 19.6 mph 28.8 mph N/A   Clear
10:54 AM 48.9°F 37.0°F 64% 30.04 in 10.0 miles South 19.6 mph 28.8 mph N/A   Clear
11:54 AM 51.1°F 37.9°F 61% 30.01 in 10.0 miles South 21.9 mph 27.6 mph N/A   Clear
12:54 PM 53.1°F 37.9°F 57% 29.98 in 10.0 miles South 18.4 mph 24.2 mph N/A   Clear
1:54 PM 54.0°F 37.9°F 55% 29.98 in 10.0 miles South 17.3 mph - N/A   Clear
2:54 PM 54.0°F 37.9°F 55% 29.98 in 10.0 miles South 16.1 mph 23.0 mph N/A   Clear
3:54 PM 53.1°F 37.0°F 55% 29.99 in 10.0 miles South 15.0 mph - N/A   Clear
4:54 PM 50.0°F 37.0°F 61% 29.99 in 10.0 miles South 8.1 mph - N/A   Clear
5:54 PM 46.9°F 36.0°F 66% 30.01 in 10.0 miles SSE 6.9 mph - N/A   Clear
6:54 PM 44.1°F 35.1°F 71% 30.01 in 10.0 miles SSE 8.1 mph - N/A   Clear
7:54 PM 41.0°F 34.0°F 76% 30.01 in 10.0 miles SSE 8.1 mph - N/A   Clear
8:54 PM 39.0°F 33.1°F 79% 30.02 in 10.0 miles SSE 8.1 mph - N/A   Clear
9:54 PM 37.9°F 33.1°F 83% 30.02 in 9.0 miles SSE 8.1 mph - N/A   Clear
10:54 PM 39.0°F 33.1°F 79% 30.02 in 9.0 miles SSE 9.2 mph - N/A   Clear
11:54 PM 37.0°F 32.0°F 82% 30.02 in 8.0 miles SSE 8.1 mph - N/A   Clear
Astronomy
Sunrise:06:56 AM (CST) Moon Rise:12:40 AM (CST)11/8
Sunset:04:50 PM (CST) Moon Set:01:42 PM (CST)11/8
Moon Phase
Nov. 08 Nov. 13 Nov. 20 Nov. 28 Dec. 06

Copyright © 2017 The Weather Underground, Inc.